RH
38 36 32 32 34 33 34 40 43 42 40 43 42 43 43 42 40 41 38 37 38 38 39 38 35 35 38 38 41 46 51 52 48 32 35 37 44 43 36 45 53 62 73 64
39 37 34 34 37 34 35 42 45 44 41 46 48 49 46 45 43 43 44 44 44 43 42 43 39 40 41 42 43 48 52 51 55 44 44 46 51 40 38 46 51 62 66 57
42 38 35 37 37 36 40 48 49 50 50 50 48 50 47 48 48 47 48 46 45 44 46 45 44 47 47 46 50 52 55 54 59 52 39 42 48 42 41 45 54 55 54 46
43 42 42 41 38 38 43 49 51 50 56 58 57 57 52 50 49 52 53 54 55 57 56 51 51 51 53 53 55 58 60 59 58 58 54 52 49 48 47 48 47 55 47 45
44 45 46 41 38 41 50 56 52 54 52 51 54 57 53 54 55 55 58 61 62 62 64 62 63 68 59 58 58 61 64 64 66 65 60 58 56 50 42 41 43 49 51 47
52 51 48 46 45 46 52 47 47 48 50 55 55 58 59 63 62 62 62 62 58 56 58 59 60 61 60 58 55 59 65 67 72 70 63 61 51 43 45 43 43 47 54 48
57 54 52 51 51 48 48 48 50 52 50 50 51 55 57 58 58 57 52 50 50 50 50 45 41 39 39 44 43 46 52 57 68 70 65 65 44 46 46 47 44 46 50 52
54 52 58 54 54 53 50 51 53 52 55 55 54 54 54 52 54 55 53 48 49 48 46 46 41 32 36 39 41 41 43 50 60 63 56 42 42 44 45 46 46 48 48 54
52 60 62 56 58 55 57 58 62 62 63 62 61 62 61 59 59 56 55 51 50 49 51 50 47 38 35 38 53 49 51 51 51 58 72 57 40 44 47 46 49 47 47 58
57 60 57 56 58 52 59 65 66 72 74 70 68 65 65 61 61 60 56 55 49 49 47 50 51 47 46 49 44 62 61 64 66 68 70 55 43 42 40 42 56 52 50 59
57 55 63 70 67 63 65 67 69 74 76 74 69 68 65 63 61 58 60 58 54 53 53 50 48 50 51 59 52 56 62 63 66 75 84 75 49 51 47 48 49 50 50 59
67 72 71 70 65 63 61 64 68 69 68 63 56 53 53 55 55 56 56 53 48 50 57 63 58 57 60 57 59 62 64 59 65 61 61 60 60 60 65 62 58 55 56 58
78 74 67 65 58 53 53 56 53 54 57 50 50 44 41 37 37 39 48 49 50 52 58 58 56 58 56 60 51 52 59 68 65 66 60 65 66 66 68 71 66 63 61 61
74 72 66 64 57 53 50 47 45 48 52 54 40 33 29 30 30 32 37 45 43 46 51 58 59 57 55 52 48 45 44 46 54 49 48 44 51 63 69 73 72 67 66 62
69 66 64 58 52 48 45 45 44 41 43 45 39 29 27 26 29 27 27 30 35 39 44 49 51 46 48 47 46 46 33 32 38 32 27 27 24 25 32 44 49 52 53 57
70 68 59 50 47 46 45 46 41 37 40 44 42 30 26 28 41 38 42 39 38 40 45 46 44 42 51 52 42 27 31 42 47 44 39 34 30 34 30 32 36 40 48 47
65 57 50 50 46 47 48 45 39 35 37 46 44 35 33 33 32 28 28 33 42 49 54 56 57 58 63 61 54 38 46 49 52 53 52 41 38 38 41 44 42 39 38 41
58 53 49 45 44 42 41 40 41 44 44 50 49 38 32 26 35 40 38 43 53 63 68 64 65 67 72 66 58 58 60 59 59 64 71 58 49 50 49 45 46 43 39 35
52 45 41 40 37 40 38 38 36 39 46 51 50 44 43 44 51 58 61 66 72 70 72 75 72 75 79 69 72 77 78 76 73 71 75 77 66 58 57 53 49 49 45 41
43 42 39 40 36 34 30 33 39 44 50 52 50 59 62 58 64 67 70 77 79 76 72 78 76 71 79 85 86 86 87 87 86 82 79 79 73 68 63 60 55 51 49 46
42 39 38 36 34 31 35 39 41 44 52 56 64 66 64 65 70 74 79 81 82 82 80 84 80 87 88 89 89 89 87 86 85 82 79 79 77 72 64 64 62 59 55 52
41 36 35 34 37 43 44 48 48 49 62 68 67 62 58 64 77 82 85 88 86 81 86 91 88 89 90 90 89 89 90 89 89 88 82 76 71 70 68 67 68 63 62 59
36 35 36 37 41 50 55 63 65 67 66 69 68 64 60 68 83 85 92 90 82 79 89 90 93 92 92 91 89 88 90 90 91 93 95 95 85 72 68 70 69 68 70 68
34 34 36 37 43 45 52 57 61 62 63 61 55 53 58 64 76 88 92 84 86 92 96 96 96 95 93 91 91 91 89 90 93 94 92 89 90 85 79 74 75 78 83 78
34 36 35 35 36 47 51 47 44 38 36 45 56 60 63 64 71 89 92 95 96 95 96 96 96 95 93 94 94 95 92 93 95 97 97 97 96 95 91 88 86 84 88 81
32 34 34 35 35 36 35 34 39 44 58 68 72 75 76 74 82 92 94 96 97 96 97 97 97 97 96 96 97 97 97 95 97 95 97 98 98 98 98 98 96 91 90 83
36 36 35 33 31 31 37 44 50 57 70 78 85 86 85 93 93 92 94 97 97 97 98 97 97 97 96 97 97 97 97 97 96 97 97 97 98 98 98 98 98 98 95 95